Flag for China Weather past 2 weeks in Xiamen, Fujian, China

Now
57 °F

Passing clouds.


Feels Like: 54 °F
Forecast: 56 / 60 °F
Wind: 13 mph from Northeast

Location: Xiamen Airport

Current Time: Dec 27, 2014 at 12:33:49 AM

Latest Report: Dec 27, 2014 at 12:00 AM


Visibility: N/A

Pressure: 30.21 "Hg

Humidity: 63%

Dew point: 45 °F

Location of XiamenLocation

Historic Weather in Xiamen — Graph

°F

Xiamen temperature yesterday

Maximum temperature yesterday: 63 °F (at 1:00 PM)
Minimum temperature yesterday: 55 °F (at 7:00 AM)
Average temperature yesterday: 59 °F

Past Weeks' High & Low Weather Summary

 TemperatureHumidityPressure
High70 °F (Dec 24, 1:00 PM)100% (Dec 19, 9:00 PM)30.45 "Hg (Dec 19, 9:00 PM)
Low48 °F (Dec 17, 4:00 AM)17% (Dec 17, 3:00 PM)30.09 "Hg (Dec 15, 3:00 PM)
Average57 °F58%30.26 "Hg
* Reported Dec 11 11:00 PM — Dec 26 11:00 PM, Xiamen, Weather by CustomWeather, © 2014

Note: Actual official high and low records may vary slightly from our data, if they occured in-between our weather recording intervals... More about our weather records

Advertising

Xiamen weather history for previous 24 hours

 ConditionsComfort  
Time TempWeatherWind HumidityBarometerVisibility
11:00 PM
Dec 26
57 °FPassing clouds.8 mph63%30.21 "HgN/A
10:00 PM59 °FPassing clouds.15 mph59%30.21 "HgN/A
9:00 PM59 °FPassing clouds.8 mph63%30.24 "HgN/A
8:00 PM59 °FPassing clouds.10 mph63%30.24 "HgN/A
7:00 PM59 °FPassing clouds.13 mph68%30.21 "HgN/A
6:00 PM59 °FPassing clouds.8 mph68%30.21 "HgN/A
5:00 PM61 °FPartly sunny.10 mph63%30.18 "HgN/A
4:00 PM61 °FPartly sunny.13 mph63%30.18 "HgN/A
3:00 PM61 °FPartly sunny.20 mph63%30.15 "HgN/A
2:00 PM63 °FScattered clouds.17 mph59%30.15 "HgN/A
1:00 PM63 °FPassing clouds.17 mph64%30.18 "HgN/A
12:00 PM61 °FPartly sunny.17 mph68%30.21 "Hg5 mi
11:00 AM59 °FLight rain. Partly sunny.10 mph77%30.27 "Hg4 mi
10:00 AM57 °FPartly sunny.8 mph72%30.30 "Hg5 mi
9:00 AM57 °FLight rain. Partly sunny.10 mph72%30.30 "Hg5 mi
8:00 AM57 °FLight rain. Scattered clouds.8 mph72%30.30 "Hg5 mi
7:00 AM55 °FScattered clouds.13 mph77%30.27 "Hg5 mi
6:00 AM57 °FPassing clouds.13 mph67%30.24 "Hg4 mi
5:00 AM57 °FPassing clouds.10 mph67%30.21 "Hg4 mi
4:00 AM57 °FPassing clouds.10 mph67%30.21 "Hg4 mi
3:00 AM57 °FPassing clouds.10 mph67%30.21 "Hg4 mi
2:00 AM57 °FPassing clouds.6 mph67%30.21 "Hg3 mi
1:00 AM57 °FPassing clouds.8 mph67%30.21 "Hg4 mi
12:00 AM57 °FPassing clouds.10 mph67%30.24 "Hg4 mi
Weather by CustomWeather, © 2014

See weather overviewHow to use our weather pages